Volver al catálogo

NOAA 4

ActivoMeteoSSO
NORAD 7529·PAYLOAD·🇺🇸 United States

Lanzado Nov 15, 1974 desde Vandenberg Space Force Base

Loading…

Próximos Pases (próximas 24 horas)

TLE

ActualizadoSource: Space-Track

Época: Sep 14, 2026, 00:35 UTC

1 07529U 74089A   26257.02480678 -.00000035  00000-0  69576-4 0  9994
2 07529 102.0029 270.7363 0009267  29.7732 354.4000 12.53206285370652

Sigue NOAA 4 en tiempo real con AllMySat

Download on the App Store